Content
SEND FEEDBACK

Daily
Averages
Monthly
Summary
United States of America

NEW YORK, NEW YORK


Home > North America > United States > New York
Elevation: 131 feet     Latitude: 40 47N     Longitude: 073 58W

WEATHER
 
SELECT A DAY
Number of Records: 151,206;   Date Range: 11/1/95 - 10/21/14
 
SHARE

PRINT THIS DATA

[ ← Previous Day ]
WEATHER ALMANAC - FEBRUARY 5, 2013
[ Next Day → ]
[ °C ]   °F
Weather ElementAverageHighLow
Temperature29.7 °F32 °F (10:51 pm)28 °F (4:25 am)
Dewpoint24.4 °F28 °F (10:51 pm)19.9 °F (1:51 am)
Humidity80.6 %89 % (11:51 pm)69 % (1:51 am)
Barometer29.93 in29.98 in (10:51 am)29.90 in (5:51 pm)
Wind Speed4.6 mph9.2 mph (11:51 am)
Weather ElementAverage
Visibility4.8 mi
Wind DirectionENE (61.7 °)

Weather ElementTotal
Precipitation0.04 in
Heating Degree Days35 (Base 65)
Averaged from 30 records on February 5, 2013
WEATHER CONDITIONS BREAKOUT
WIND DIRECTION BREAKOUT
WEATHER BY HOUR - FEBRUARY 5, 2013
[ °C ]   °F
Local TimeTemperatureDewpointHumidityBarometerVisibilityWind DirectionWind SpeedGust SpeedPrecipitationEventsConditions
1:51 AM28.9 °F19.9 °F69 %29.94 in8.0 miWSW (240°)3.5 mphOvercast
2:46 AM28.4 °F21.2 °F74 %29.95 in6.0 miVariable4.6 mphHaze
2:51 AM28.9 °F21.9 °F75 %29.93 in5.0 miWest (280°)4.6 mph0.00 inSnowLight Snow
3:51 AM28.9 °F23.0 °F78 %29.93 in3.0 miCalm0.00 inSnowLight Snow
3:59 AM28.9 °F23.0 °F78 %29.94 in2.5 miCalm0.00 inSnowLight Snow
4:10 AM28.9 °F24.1 °F82 %29.93 in3.0 miCalm0.00 inSnowLight Snow
4:25 AM28.0 °F24.1 °F85 %29.93 in3.0 miNorth (10°)3.5 mph0.01 inSnowLight Snow
4:51 AM28.9 °F24.1 °F82 %29.91 in4.0 miCalm0.01 inSnowLight Snow
5:51 AM28.9 °F24.1 °F82 %29.93 in4.0 miNorth (350°)4.6 mph0.00 inSnowLight Snow
6:51 AM28.0 °F23.0 °F81 %29.94 in5.0 miNNE (20°)4.6 mph0.00 inHaze
7:51 AM28.0 °F23.0 °F81 %29.95 in4.0 miNNE (30°)3.5 mph0.00 inHaze
8:51 AM28.9 °F23.0 °F78 %29.96 in5.0 miVariable5.8 mphHaze
9:51 AM28.9 °F23.0 °F78 %29.96 in5.0 miNE (50°)5.8 mphHaze
10:51 AM30.0 °F24.1 °F79 %29.98 in4.0 miNE (40°)4.6 mphHaze
11:51 AM30.0 °F23.0 °F75 %29.95 in6.0 miENE (60°)9.2 mphHaze
12:51 PM30.0 °F24.1 °F79 %29.95 in6.0 miENE (60°)8.1 mphHaze
1:51 PM30.0 °F24.1 °F79 %29.92 in4.0 miNE (50°)9.2 mphHaze
2:51 PM30.0 °F24.1 °F79 %29.91 in6.0 miEast (80°)6.9 mphHaze
3:51 PM30.0 °F24.1 °F79 %29.92 in5.0 miENE (70°)8.1 mphHaze
4:51 PM30.0 °F24.1 °F79 %29.91 in7.0 miENE (60°)5.8 mphOvercast
5:51 PM30.0 °F25.0 °F82 %29.90 in8.0 miVariable5.8 mphOvercast
6:51 PM30.0 °F26.1 °F85 %29.91 in5.0 miNE (50°)5.8 mphOvercast
7:51 PM30.9 °F26.1 °F82 %29.91 in4.0 miENE (70°)4.6 mphHaze
8:18 PM30.9 °F26.1 °F82 %29.93 in2.0 miENE (70°)6.9 mph0.00 inSnowLight Snow
8:41 PM30.9 °F27.0 °F85 %29.92 in4.0 miENE (70°)4.6 mph0.01 inOvercast
8:51 PM30.9 °F27.0 °F85 %29.91 in4.0 miENE (60°)4.6 mph0.01 inOvercast
9:47 PM30.2 °F26.6 °F86 %29.93 in6.0 miENE (70°)4.6 mphOvercast
9:51 PM30.9 °F27.0 °F85 %29.92 in6.0 miVariable3.5 mphOvercast
10:51 PM32.0 °F28.0 °F85 %29.92 in5.0 miENE (60°)4.6 mphOvercast
11:51 PM30.9 °F28.0 °F89 %29.92 in4.0 miCalmOvercast
Hourly data recorded from KNYC, located miles away from New York, New York







STORIES FROM OUR PARTNERS